Regional Weather Roundup
Issued by NWS Cleveland, OH

Home | Current Version | Previous Version | Graphics & Text | Print | Product List | Glossary On
Versions: 1 2 3 4 5 6 7 8 9 10 11 12 13 14 15 16 17 18 19 20 21 22 23 24 25 26 27 28 29 30 31 32 33 34 35 36 37 38 39 40 41 42 43 44 45 46 47 48 49 50
000
ASUS41 KCLE 220100
RWRCLE
OHIO REGIONAL WEATHER ROUNDUP
NATIONAL WEATHER SERVICE WILMINGTON, OH
800 PM EST TUE NOV 21 2017

NOTE: "FAIR" INDICATES FEW OR NO CLOUDS BELOW 12,000 FEET WITH NO
SIGNIFICANT WEATHER AND/OR OBSTRUCTIONS TO VISIBILITY.

OHZ001>008-015>018-024>027-034-035-043-044-220200-
   NORTHWEST OHIO

CITY           SKY/WX    TMP DP  RH WIND       PRES   REMARKS
DEFIANCE       CLOUDY    38  33  82 W8G16     30.00R
FINDLAY        LGT RAIN  42  36  79 W10       29.95R
TOLEDO EXPRESS CLOUDY    39  37  92 W15       29.96R
TOLEDO EXEC    LGT RAIN  40  35  83 W20       29.96R
LIMA           CLOUDY    42  37  82 W18       29.97R
$$

OHZ009>014-019>023-028>033-038-089-220200-
   NORTHEAST OHIO

CITY           SKY/WX    TMP DP  RH WIND       PRES   REMARKS
CLE-HOPKINS    CLOUDY    49  35  58 W15       29.93R
CLE-LAKEFRONT  CLOUDY    48  36  63 W17       29.90R
CUY CO. ARPT   CLOUDY    48  37  66 W14G25    29.91R
LORAIN-ELYRIA  CLOUDY    46  31  55 NW16      29.92R
ASHTABULA      CLOUDY    49  31  49 SW13      29.88S
AKRON-CANTON   CLOUDY    47  29  49 SW8       29.90S
WOOSTER        NOT AVBL
MANSFIELD      CLOUDY    46  35  65 W8        29.92R
YOUNGSTOWN     CLOUDY    47  29  49 S6        29.88F
$$

OHZ042-051>053-060>062-070>072-077>081-220200-
  SOUTHWEST OHIO

CITY           SKY/WX    TMP DP  RH WIND       PRES   REMARKS
CINC-COVINGTON CLOUDY    48  35  60 W7        29.99R
CINC-LUNKEN    FAIR      48  34  58 SW5       30.00R
HAMILTON       FAIR      49  36  61 W6        30.00R
DAYTON         NOT AVBL
WRIGHT-PAT AFB CLOUDY    49  32  51 W14       29.97R
DAYTON GENERAL FAIR      49  33  54 W8        29.97R
WILMINGTON     FAIR      47  32  56 W8        29.96R
$$

OHZ036-037-039>041-045>050-054>059-063>069-073>076-082>088-220200-
  CENTRAL AND SOUTHEAST OHIO

CITY           SKY/WX    TMP DP  RH WIND       PRES   REMARKS
COLUMBUS       CLOUDY    50  32  50 SW6       29.94R
OSU AIRPORT    FAIR      48  34  58 W8        29.94R
BOLTON FIELD   NOT AVBL
RICKENBACK AFB NOT AVBL
NEWARK         FAIR      48  29  47 W6        29.93R
MARION         CLOUDY    47  34  60 W10       29.94R
LANCASTER      FAIR      48  31  51 SW6       29.94R
ZANESVILLE     FAIR      50  28  42 SW3       29.93S
NEW PHILLY     FAIR      50  30  46 VRB3      29.93R
$$




USA.gov is the U.S. government's official web portal to all federal, state and local government web resources and services.